Location: Cluj-Napoca
(46.7712°N, 23.6236°E)
Time: 18:57:25
(UTC+02:00)

LilacSat-2 - Visible Passes

Search period start: 03 December 2021 00:00
Search period end: 13 December 2021 00:00
Orbit: 511 x 532 km, 97.5° (Epoch: 03 December)

Date Brightness Start Highest point End Pass type
(mag) Time Alt. Az. Time Alt. Az. Time Alt. Az.
03 Dec ? 05:46:29 10° NNE 05:49:58 32° E 05:53:27 10° SSE visible
03 Dec ? 18:04:26 10° SSW 18:07:43 28° W 18:11:02 10° NW visible
04 Dec ? 05:33:47 10° NE 05:36:55 23° E 05:40:03 10° SSE visible
04 Dec ? 07:07:43 10° N 07:11:06 30° WNW 07:14:30 10° SW visible
04 Dec ? 17:51:08 10° SSW 17:54:40 39° W 17:58:16 10° NNW visible
05 Dec ? 05:21:14 10° NE 05:23:50 17° E 05:26:26 10° SE visible
05 Dec ? 06:54:33 10° N 06:58:12 41° WNW 07:01:50 10° SW visible
05 Dec ? 17:37:57 10° S 17:41:39 56° W 17:45:25 10° NNW visible
06 Dec ? 05:09:01 10° ENE 05:10:43 13° E 05:12:26 10° ESE visible
06 Dec ? 06:41:28 10° N 06:45:16 58° WNW 06:49:03 10° SSW visible
06 Dec ? 17:24:53 10° S 17:28:39 81° WSW 17:32:29 10° NNW visible
07 Dec ? 06:28:26 10° N 06:32:19 82° WNW 06:36:10 10° SSW visible
07 Dec ? 17:11:56 10° SSE 17:15:40 71° ENE 17:19:29 10° N visible
08 Dec ? 06:15:27 10° NNE 06:19:20 71° ESE 06:23:10 10° S visible
08 Dec ? 18:35:11 10° WSW 18:37:12 14° W 18:39:14 10° WNW visible
09 Dec ? 06:02:32 10° NNE 06:06:19 49° E 06:10:03 10° S visible
09 Dec ? 18:21:20 10° SW 18:24:05 19° W 18:26:52 10° NW visible
10 Dec ? 05:49:42 10° NNE 05:53:16 35° E 05:56:49 10° SSE visible
10 Dec ? 18:07:47 10° SSW 18:11:00 26° W 18:14:16 10° NW visible
11 Dec ? 05:36:57 10° NE 05:40:13 25° E 05:43:27 10° SSE visible
11 Dec ? 07:11:02 10° N 07:14:22 28° WNW 07:17:40 10° SW visible
11 Dec ? 17:54:26 10° SSW 17:57:56 36° W 18:01:30 10° NNW visible
12 Dec ? 05:24:21 10° NE 05:27:07 19° E 05:29:53 10° SE visible
12 Dec ? 06:57:50 10° N 07:01:27 38° WNW 07:05:01 10° SW visible
12 Dec ? 17:41:12 10° S 17:44:53 51° W 17:48:39 10° NNW visible
